[[{"header":{"parameterUnit":"m.s-1","parameterCategory":1,"la1":30.2991,"la2":30.254,"lo1":-89.0895,"lo2":-89.0444,"dy":0.0017,"dx":0.0017,"nx":28,"ny":28,"refTime":"2025-03-30T21:00:00:Z","depth":0,"parameterNumber":2,"parameterNumberName":"U-component_of_WINDS"},"data":[0,0,0,0,0,0,0,0,0,0,0,0,0,0,0,0,0,0,0,0,0,0,0,0,0,0,0,0,0,0,0,0,0,0,0,0,0,0,0,0,0,0,0,0,0,0,0,0,0,0,0,0,0,0,0,0,0,0,-1.9691,-1.9691,0,-1.9699,-1.9699,-1.9699,-1.967,-1.9669,-1.9668,-1.9667,-1.9675,-1.9676,-1.9677,0,0,0,0,0,0,0,0,0,0,0,0,0,-1.965,-1.9651,-1.9691,-1.9691,-1.9691,-1.9699,-1.9699,-1.9699,-1.967,-1.9669,-1.9668,-1.9667,-1.9675,-1.9676,-1.9677,0,0,0,0,0,0,0,0,0,0,0,0,0,-1.9664,-1.9652,-1.9691,-1.9678,-1.9676,-1.9699,-1.9699,-1.9699,-1.967,-1.9669,-1.9668,-1.9666,-1.9674,-1.9676,-1.9677,-1.9713,0,0,-1.9682,-1.9683,0,0,0,0,0,0,0,0,-1.9663,-1.9666,-1.9679,-1.9678,-1.9677,-1.9682,-1.9688,-1.9704,-1.9671,-1.9673,-1.9667,-1.9666,-1.9679,-1.968,-1.9684,-1.9713,-1.9714,-1.9682,-1.9683,-1.9684,-1.9684,0,0,0,0,0,0,0,-1.9662,-1.9665,-1.9694,-1.968,-1.9678,-1.9671,-1.9672,-1.9691,-1.9683,-1.9672,-1.967,-1.9672,-1.9678,-1.9683,-1.9684,-1.9714,-1.9682,-1.9684,-1.9685,-1.9685,-1.9773,-1.9774,0,0,0,0,0,0,-1.9663,-1.9665,-1.9694,-1.9694,-1.9667,-1.9673,-1.9673,-1.9682,-1.9682,-1.9681,-1.9673,-1.967,-1.9681,-1.9682,-1.9684,-1.9725,-1.9684,-1.9685,-1.9686,-1.9771,-1.9773,-1.9775,0,0,0,0,0,0,-1.9663,-1.9666,-1.9693,-1.9679,-1.9682,-1.9675,-1.9685,-1.9683,-1.9687,-1.9683,-1.9681,-1.9679,-1.968,-1.9682,-1.9706,-1.9725,-1.9686,-1.9687,-1.977,-1.9772,-1.9774,-1.9808,0,0,0,0,0,0,-1.9661,-1.9666,-1.9679,-1.9679,-1.9683,-1.9715,-1.9686,-1.9684,-1.969,-1.9687,-1.9688,-1.9687,-1.9679,-1.9704,-1.9708,-1.9726,-1.9689,-1.9768,-1.9771,-1.9773,-1.9805,-1.9811,-1.9816,0,0,0,0,0,-1.966,-1.9689,-1.968,-1.9684,-1.9699,-1.9716,-1.9718,-1.9708,-1.9692,-1.9705,-1.9702,-1.9687,-1.9723,-1.9707,-1.9711,-1.973,-1.9767,-1.977,-1.9773,-1.9803,-1.981,-1.9816,0,0,0,0,0,0,-1.9691,-1.9688,-1.9679,-1.9708,-1.9713,-1.9711,-1.9728,-1.9716,-1.9725,-1.9722,-1.9708,-1.9709,-1.9735,-1.9735,-1.9717,-1.9765,-1.9742,-1.9746,-1.9763,-1.977,-1.9775,-1.9774,-1.969,0,0,0,0,0,-1.9701,-1.9715,-1.9713,-1.9739,-1.9742,-1.9735,-1.9742,-1.9733,-1.9737,-1.9739,-1.9738,-1.9742,-1.9754,-1.9762,-1.9773,-1.9806,-1.9805,-1.9821,-1.9827,-1.9831,-1.9834,-1.9851,-1.9858,-1.9785,-1.9785,-1.9785,0,0,-1.9722,-1.9723,-1.9733,-1.9745,-1.9747,-1.9762,-1.9736,-1.9753,-1.9764,-1.9742,-1.9764,-1.9763,-1.9768,-1.9796,-1.9808,-1.9797,-1.9855,-1.9835,-1.9839,-1.984,-1.9855,-1.9862,-1.9868,-1.9787,-1.9787,-1.9786,0,0,-1.9768,-1.9771,-1.9792,-1.9796,-1.98,-1.9795,-1.98,-1.9801,-1.98,-1.9822,-1.9806,-1.9819,-1.984,-1.9843,-1.9848,-1.9896,-1.9882,-1.99,-1.9928,-1.9944,-1.995,-1.9955,-1.9971,-1.9977,-1.9904,-1.9904,-1.9904,0,-1.9794,-1.9815,-1.9805,-1.9823,-1.9829,-1.981,-1.9832,-1.9835,-1.9843,-1.9847,-1.9835,-1.9861,-1.9863,-1.9891,-1.9903,-1.9908,-1.9913,-1.9899,-1.995,-1.9955,-1.996,-1.9975,-1.9981,-1.9906,-1.9906,-1.9905,-1.9905,0,-1.9846,-1.9862,-1.9879,-1.9887,-1.9895,-1.9915,-1.9907,-1.9917,-1.9908,-1.9905,-1.9928,-1.9929,-1.994,-1.9947,-1.9938,-1.9974,-1.9966,-1.9952,-1.9929,-1.9969,-1.9983,-1.9989,-1.9909,-1.9908,-1.9907,-1.9907,0,0,-1.991,-1.9913,-1.9919,-1.9922,-1.9926,-1.9938,-1.9957,-1.9968,-1.9975,-1.9982,-1.9997,-2.0016,-2.0003,-2.0008,-2.0001,-2.0015,-2.0052,-1.9999,-1.9999,-2.0008,-2.009,-2.01,-2.0107,-2.0044,-2.0045,-2.0046,-2.009,0,-1.9954,-1.9987,-1.9978,-2.0011,-2.0025,-2.0008,-2.0024,-2.0028,-2.0026,-2.0038,-2.0035,-2.0048,-2.0031,-2.0034,-2.0047,-2.0045,-2.0068,-2.0042,-2.0057,-2.0058,-2.0055,-2.0114,-2.0124,-2.0165,-2.0095,-2.0096,-2.0097,0,-2.001,-2.0018,-2.0052,-2.0053,-2.0059,-2.0074,-2.0083,-2.0094,-2.0099,-2.0096,-2.0103,-2.0092,-2.0111,-2.0089,-2.0114,-2.0096,-2.0103,-2.0103,-2.0104,-2.0103,-2.0078,-2.0114,-2.0178,-2.0184,-2.0106,-2.0105,-2.0104,0,-2.0052,-2.0072,-2.0094,-2.0098,-2.01,-2.0111,-2.0113,-2.0116,-2.0123,-2.0131,-2.0135,-2.0146,-2.0151,-2.016,-2.0152,-2.0137,-2.0179,-2.0156,-2.0176,-2.0176,-2.0184,-2.0183,-2.0249,-2.0191,-2.0191,-2.0191,-2.0191,0,-2.0101,-2.0122,-2.0113,-2.0127,-2.015,-2.014,-2.0163,-2.0163,-2.0166,-2.0179,-2.0166,-2.0179,-2.0169,-2.0181,-2.0176,-2.0197,-2.02,-2.0198,-2.0196,-2.0198,-2.0198,-2.02,-2.0197,-2.0192,-2.0192,-2.0192,-2.0191,0,-2.015,-2.0146,-2.0169,-2.017,-2.017,-2.0187,-2.0188,-2.02,-2.0198,-2.0215,-2.0218,-2.0214,-2.0227,-2.0221,-2.0235,-2.0232,-2.0259,-2.0254,-2.0257,-2.0255,-2.0275,-2.0273,-2.0343,-2.0351,-2.029,-2.029,-2.0291,0,-2.0181,-2.0197,-2.02,-2.0208,-2.021,-2.0223,-2.023,-2.0222,-2.023,-2.0237,-2.0248,-2.0261,-2.027,-2.0292,-2.029,-2.0301,-2.0295,-2.0319,-2.0296,-2.0298,-2.0294,-2.0292,-2.0293,-2.0323,-2.0324,-2.0324,-2.0325,0,-2.0236,-2.0233,-2.0244,-2.0254,-2.0263,-2.0271,-2.0277,-2.0284,-2.0276,-2.0286,-2.0299,-2.0307,-2.0321,-2.0333,-2.0343,-2.0344,-2.0333,-2.0332,-2.0337,-2.0339,-2.0339,-2.0338,-2.0268,-2.033,-2.0329,-2.0329,-2.0329,-2.0329,-2.0277,-2.029,-2.0293,-2.0306,-2.031,-2.0316,-2.0328,-2.0327,-2.0338,-2.0349,-2.0344,-2.036,-2.0364,-2.0376,-2.0379,-2.0391,-2.0381,-2.0389,-2.039,-2.0392,-2.0394,-2.0339,-2.0393,-2.0392,-2.0392,-2.0392,-2.0392,0,-2.033,-2.0332,-2.0343,-2.0353,-2.0362,-2.0352,-2.0358,-2.0367,-2.0381,-2.0386,-2.0396,-2.0411,-2.0423,-2.0422,-2.0433,-2.0443,-2.0438,-2.0446,-2.0444,-2.0445,-2.0402,-2.0396,-2.045,-2.045,-2.045,-2.045,-2.045,-2.045,-2.0358,-2.038,-2.0377,-2.04,-2.0402,-2.0417,-2.0422,-2.0427,-2.0431,-2.0449,-2.0459,-2.0459,-2.0461,-2.0472,-2.0483,-2.0482,-2.0486,-2.0496,-2.0493,-2.0453,-2.0448,-2.0442,-2.0436,-2.0497,-2.0497,-2.0534,-2.0535,-2.0535]},{"header":{"parameterUnit":"m.s-1","parameterCategory":1,"la1":30.2991,"la2":30.254,"lo1":-89.0895,"lo2":-89.0444,"dy":0.0017,"dx":0.0017,"nx":28,"ny":28,"refTime":"2025-03-30T21:00:00:Z","depth":0,"parameterNumber":3,"parameterNumberName":"V-component_of_WINDS"},"data":[0,0,0,0,0,0,0,0,0,0,0,0,0,0,0,0,0,0,0,0,0,0,0,0,0,0,0,0,0,0,0,0,0,0,0,0,0,0,0,0,0,0,0,0,0,0,0,0,0,0,0,0,0,0,0,0,0,0,3.9199,3.9199,0,3.9182,3.9182,3.9181,3.9186,3.9186,3.9186,3.9187,3.9166,3.9165,3.9164,0,0,0,0,0,0,0,0,0,0,0,0,0,3.9238,3.9237,3.92,3.9199,3.9199,3.9182,3.9182,3.9181,3.9186,3.9186,3.9186,3.9187,3.9166,3.9165,3.9164,0,0,0,0,0,0,0,0,0,0,0,0,0,3.9221,3.9237,3.92,3.9199,3.9199,3.9182,3.9182,3.9181,3.9185,3.9186,3.9186,3.9187,3.9166,3.9165,3.9164,3.9145,0,0,3.916,3.9159,0,0,0,0,0,0,0,0,3.9222,3.9219,3.9199,3.9199,3.9199,3.9187,3.9188,3.9169,3.9185,3.919,3.9187,3.9187,3.9172,3.917,3.9166,3.9144,3.9143,3.916,3.9159,3.9158,3.9158,0,0,0,0,0,0,0,3.9223,3.922,3.9192,3.9199,3.9199,3.92,3.9198,3.9184,3.9178,3.919,3.919,3.9188,3.9172,3.9167,3.9165,3.9143,3.916,3.9159,3.9158,3.9157,3.911,3.911,0,0,0,0,0,0,3.9224,3.9221,3.9193,3.9192,3.9212,3.9199,3.9197,3.919,3.9179,3.9178,3.9188,3.9189,3.9169,3.9167,3.9165,3.9145,3.9158,3.9157,3.9156,3.9111,3.911,3.911,0,0,0,0,0,0,3.9225,3.9222,3.9194,3.9207,3.9203,3.9198,3.919,3.9189,3.9184,3.9177,3.9176,3.9184,3.9169,3.9166,3.9151,3.9144,3.9157,3.9155,3.9111,3.9111,3.911,3.9103,0,0,0,0,0,0,3.9226,3.9222,3.9214,3.9206,3.9202,3.918,3.9189,3.9189,3.9182,3.9183,3.9173,3.9172,3.917,3.9153,3.915,3.9142,3.9154,3.9112,3.9111,3.911,3.9104,3.9102,3.9101,0,0,0,0,0,3.9228,3.9211,3.9214,3.921,3.9193,3.918,3.9177,3.9176,3.9182,3.9174,3.9171,3.9172,3.9146,3.9152,3.9148,3.914,3.9112,3.9111,3.911,3.9105,3.9103,3.9101,0,0,0,0,0,0,3.9216,3.921,3.9213,3.9194,3.9188,3.918,3.9171,3.9173,3.9164,3.9165,3.9163,3.9161,3.9146,3.9142,3.9148,3.9124,3.913,3.9128,3.9127,3.9125,3.9123,3.9125,3.9153,0,0,0,0,0,3.9212,3.9202,3.9197,3.9181,3.9178,3.9175,3.9169,3.917,3.9163,3.9159,3.9154,3.9147,3.9138,3.9131,3.9122,3.9104,3.9103,3.9097,3.9096,3.9095,3.9093,3.9086,3.9084,3.9106,3.9106,3.9106,0,0,3.9202,3.9198,3.9191,3.9179,3.9174,3.9165,3.9173,3.9161,3.9155,3.9157,3.9143,3.914,3.9132,3.9117,3.911,3.9112,3.9087,3.9093,3.9092,3.9091,3.9085,3.9083,3.9081,3.9106,3.9106,3.9106,0,0,3.9179,3.9174,3.9162,3.9158,3.9152,3.9151,3.9148,3.9142,3.914,3.9127,3.913,3.9123,3.9105,3.9101,3.9096,3.9078,3.908,3.9075,3.9067,3.9061,3.9059,3.9058,3.9053,3.9051,3.9074,3.9074,3.9074,0,3.9167,3.9153,3.9154,3.9145,3.914,3.9145,3.9134,3.913,3.912,3.9117,3.9121,3.9103,3.9098,3.9083,3.908,3.9075,3.9073,3.9076,3.9059,3.9058,3.9056,3.9052,3.905,3.9073,3.9073,3.9073,3.9073,0,3.914,3.9131,3.9121,3.9115,3.911,3.9099,3.91,3.9094,3.9097,3.9096,3.9084,3.9079,3.9071,3.9067,3.9068,3.9054,3.9056,3.906,3.9066,3.9054,3.905,3.9048,3.9073,3.9073,3.9073,3.9073,0,0,3.9105,3.9104,3.91,3.9099,3.9095,3.9088,3.9079,3.9073,3.907,3.9064,3.9057,3.9046,3.9051,3.9046,3.9046,3.9041,3.903,3.9046,3.9046,3.9044,3.9018,3.9015,3.9013,3.9032,3.9032,3.9032,3.9019,0,3.9083,3.9067,3.9071,3.9056,3.9049,3.9057,3.9049,3.9047,3.9047,3.9042,3.9042,3.9034,3.904,3.9038,3.9033,3.9032,3.9025,3.9033,3.9027,3.9026,3.9028,3.901,3.9007,3.8994,3.9017,3.9017,3.9016,0,3.9053,3.905,3.9035,3.9037,3.9034,3.9027,3.9024,3.9019,3.9017,3.9018,3.9015,3.9019,3.9011,3.9019,3.901,3.9016,3.9014,3.9014,3.9013,3.9012,3.902,3.9009,3.899,3.8989,3.9014,3.9014,3.9014,0,3.9032,3.9024,3.9015,3.9013,3.9014,3.901,3.901,3.9009,3.9007,3.9004,3.9003,3.8999,3.8997,3.8994,3.8997,3.9002,3.8989,3.8996,3.899,3.899,3.8986,3.8986,3.8966,3.8984,3.8984,3.8984,3.8984,0,3.9006,3.8997,3.9006,3.9,3.8991,3.8997,3.8988,3.8989,3.8989,3.8985,3.8991,3.8987,3.8991,3.8987,3.899,3.8984,3.8982,3.8983,3.8984,3.8983,3.8983,3.8981,3.8982,3.8984,3.8984,3.8984,3.8984,0,3.8979,3.8985,3.8976,3.8979,3.898,3.8974,3.8977,3.8973,3.8976,3.897,3.8969,3.8973,3.897,3.8974,3.897,3.8972,3.8964,3.8965,3.8965,3.8965,3.896,3.8961,3.8938,3.8936,3.8955,3.8955,3.8955,0,3.8963,3.8956,3.8961,3.8959,3.896,3.8957,3.8956,3.8962,3.8961,3.8962,3.8958,3.8956,3.8954,3.8949,3.8952,3.8951,3.8953,3.8945,3.8952,3.8952,3.8954,3.8954,3.8955,3.8943,3.8943,3.8943,3.8943,0,3.8933,3.8937,3.8935,3.8936,3.8935,3.8935,3.8936,3.8934,3.8942,3.894,3.8938,3.8938,3.8937,3.8935,3.8935,3.8936,3.8941,3.8941,3.894,3.8938,3.8939,3.894,3.8961,3.8941,3.8941,3.8941,3.8941,3.8941,3.8911,3.8908,3.8912,3.8911,3.8913,3.8915,3.8912,3.8916,3.8915,3.8916,3.892,3.8918,3.8921,3.8922,3.8923,3.8922,3.8926,3.8923,3.8923,3.8922,3.8922,3.8939,3.8922,3.8922,3.8922,3.8922,3.8922,0,3.8883,3.8887,3.8887,3.8889,3.889,3.8897,3.89,3.8899,3.8898,3.8901,3.8901,3.8901,3.8901,3.8906,3.8906,3.8905,3.8908,3.8905,3.8905,3.8906,3.8918,3.892,3.8903,3.8903,3.8903,3.8903,3.8903,3.8903,3.8868,3.8864,3.8869,3.8867,3.8871,3.8871,3.8872,3.8874,3.8877,3.8877,3.8878,3.8882,3.8887,3.8889,3.889,3.8892,3.8892,3.8889,3.8892,3.8903,3.8905,3.8906,3.8908,3.8889,3.8889,3.8879,3.8879,3.8879]}]]